Orbital Elements at Epoch 2459000.5 (2020-May-31.0) TDB
Reference: JPL 23 (heliocentric ecliptic J2000)
Element | Value | Uncertainty (1-sigma) | Units |
e | .2628188092830046 | 4.2231e-08 | |
a | 2.602170794790934 | 1.0683e-08 | au |
q | 1.918271364952971 | 1.0736e-07 | au |
i | 12.24701573875787 | 5.551e-06 | deg |
node | 314.9709350171157 | 2.352e-05 | deg |
peri | 160.5095331557693 | 2.6781e-05 | deg |
M | 61.75954378122872 | 1.3953e-05 | deg |
tp | 2458737.470958262192 (2019-Sep-10.97095826) | 5.8384e-05 | TDB |
period | 1533.211698600521 4.20 | 9.4418e-06 2.585e-08 | d yr |
n | .2348012347731233 | 1.4459e-09 | deg/d |
Q | 3.286070224628898 | 1.3491e-08 | au |
|
| | Orbit Determination Parameters
Additional Information
|